Clarksburg, WV

1:45 PM EDT on April 21, 2018 (GMT -0400)
Benedum

Weather History for KCKB - March, 2014

Change the Weather History Date:

Friday, March 28, 2014

  Actual Average Record
Temperature  
Mean Temperature 58 °F 46 °F  
Max Temperature 66 °F 57 °F 83 °F (1950)
Min Temperature 50 °F 35 °F 14 °F (1982)
Degree Days  
Heating Degree Days 7 19  
Month to date heating degree days 666  
Since 1 July heating degree days 4627  
Cooling Degree Days 0 0  
Month to date cooling degree days 0  
Year to date cooling degree days 0  
Growing Degree Days 8 (Base 50)    
Moisture  
Dew Point 39 °F    
Average Humidity 51    
Maximum Humidity 77    
Minimum Humidity 27    
Precipitation  
Precipitation 0.03 in 0.15 in 1.80 in (1932)
Month to date precipitation 3.55  
Year to date precipitation 10.14  
Sea Level Pressure  
Sea Level Pressure 29.95 in    
Wind  
Wind Speed 12 mph (SW)    
Max Wind Speed 22 mph    
Max Gust Speed 30 mph    
Visibility 10 miles    
Events Rain    
T = Trace of Precipitation, MM = Missing Value Source: NWS Daily Summary

Daily Weather History Graph

Daily Weather History Graph

Search for Another Location

Airport or City:

Astronomy

Mar. 28, 2014 Rise Set
Actual Time 7:11 AM EDT 7:40 PM EDT
Civil Twilight 6:44 AM EDT 8:07 PM EDT
Nautical Twilight 6:13 AM EDT 8:39 PM EDT
Astronomical Twilight 5:40 AM EDT 9:12 PM EDT
Moon 5:40 AM EDT (3/28) 5:36 PM EDT (3/28)
Length of Visible Light 13h 22m
Length of Day
12h 29m
Waning Crescent, 6% of the Moon is Illuminated
Mar 28
Waning Crescent
Mar 30
New
Apr 7
First Quarter
Apr 15
Full
Apr 22
Last Quarter

Hourly Weather History & Observations

Time (EDT) Temp. Dew Point Humidity Pressure Visibility Wind Dir Wind Speed Gust Speed Precip Events Conditions
12:53 AM 53.1 °F 19.9 °F 27% 29.92 in 10.0 mi South 10.4 mph - N/A   Clear
1:53 AM 52.0 °F 21.0 °F 30% 29.92 in 10.0 mi South 6.9 mph - N/A   Overcast
2:53 AM 53.1 °F 21.0 °F 29% 29.92 in 10.0 mi South 9.2 mph - N/A   Overcast
3:53 AM 54.0 °F 21.9 °F 29% 29.92 in 10.0 mi SSW 12.7 mph - N/A   Overcast
4:53 AM 55.9 °F 24.1 °F 29% 29.92 in 10.0 mi SW 15.0 mph - N/A   Overcast
5:53 AM 55.0 °F 27.0 °F 34% 29.91 in 10.0 mi SSW 9.2 mph - 0.00 in   Overcast
6:53 AM 53.1 °F 30.9 °F 43% 29.91 in 10.0 mi South 9.2 mph - 0.00 in   Overcast
7:53 AM 52.0 °F 37.0 °F 57% 29.92 in 8.0 mi South 8.1 mph - 0.00 in Rain Light Rain
8:53 AM 50.0 °F 43.0 °F 77% 29.94 in 8.0 mi South 10.4 mph - 0.03 in Rain Light Rain
9:53 AM 52.0 °F 43.0 °F 71% 29.93 in 10.0 mi South 13.8 mph - 0.00 in   Overcast
10:53 AM 57.9 °F 46.9 °F 67% 29.92 in 10.0 mi SSW 18.4 mph 28.8 mph N/A   Scattered Clouds
11:53 AM 62.1 °F 46.9 °F 58% 29.91 in 10.0 mi SW 19.6 mph 29.9 mph N/A   Mostly Cloudy
12:53 PM 64.0 °F 46.9 °F 54% 29.90 in 10.0 mi SW 20.7 mph 27.6 mph N/A   Overcast
1:53 PM 63.0 °F 46.9 °F 56% 29.91 in 10.0 mi SW 21.9 mph 28.8 mph N/A   Overcast
2:53 PM 64.0 °F 48.0 °F 56% 29.91 in 10.0 mi SW 15.0 mph 25.3 mph 0.00 in   Overcast
3:53 PM 64.9 °F 48.0 °F 54% 29.91 in 10.0 mi WSW 16.1 mph 24.2 mph N/A   Overcast
4:53 PM 66.0 °F 46.9 °F 50% 29.92 in 10.0 mi WSW 17.3 mph 26.5 mph N/A   Mostly Cloudy
5:53 PM 66.9 °F 46.0 °F 47% 29.95 in 10.0 mi WSW 17.3 mph 23.0 mph N/A   Scattered Clouds
6:53 PM 64.9 °F 46.0 °F 50% 29.98 in 10.0 mi West 10.4 mph 19.6 mph N/A   Scattered Clouds
7:53 PM 62.1 °F 46.0 °F 56% 30.00 in 10.0 mi NNW 11.5 mph - N/A   Overcast
8:53 PM 59.0 °F 45.0 °F 60% 30.02 in 10.0 mi NNW 9.2 mph - N/A   Overcast
9:53 PM 57.0 °F 43.0 °F 59% 30.05 in 10.0 mi NNW 6.9 mph - N/A   Overcast
10:53 PM 53.1 °F 42.1 °F 66% 30.07 in 10.0 mi NNE 4.6 mph - N/A   Overcast
11:53 PM 53.1 °F 39.9 °F 61% 30.07 in 10.0 mi NNE 11.5 mph - N/A   Overcast